CST,Max TemperatureF,Mean TemperatureF,Min TemperatureF,Max Dew PointF,MeanDew PointF,Min DewpointF,Max Humidity, Mean Humidity, Min Humidity, Max Sea Level PressureIn, Mean Sea Level PressureIn, Min Sea Level PressureIn, Max VisibilityMiles, Mean VisibilityMiles, Min VisibilityMiles, Max Wind SpeedMPH, Mean Wind SpeedMPH, Max Gust SpeedMPH,PrecipitationIn, CloudCover, Events, WindDirDegrees
2012-12-1,78,64,51,59,55,50,94,77,48,30.23,30.17,30.12,10,10,7,10,2,,0.00,4,,160
2012-12-2,80,68,55,64,60,54,97,82,50,30.25,30.19,30.13,10,7,0,9,3,,0.00,5,Fog,166
2012-12-3,79,66,53,65,57,53,100,88,54,30.17,30.14,30.07,10,4,0,10,1,22,0.02,5,Fog-Rain,160
2012-12-4,77,70,63,70,65,60,94,86,69,30.19,30.14,30.10,10,8,0,9,5,18,0.33,6,Fog-Rain-Thunderstorm,166
2012-12-5,66,62,57,59,56,54,93,84,70,30.21,30.14,30.06,10,10,8,9,3,,0.00,7,,19
2012-12-6,64,58,53,59,55,52,100,92,77,30.06,29.98,29.93,10,4,0,6,1,,0.01,7,Fog,57
2012-12-7,73,60,48,61,53,48,100,91,55,29.98,29.93,29.87,10,3,0,8,1,,0.00,3,Fog,201
2012-12-8,77,67,57,63,60,54,94,82,60,29.96,29.91,29.87,10,9,4,13,2,,0.03,5,Rain,184
2012-12-9,82,70,57,68,63,56,100,84,54,29.96,29.90,29.83,10,7,0,14,4,20,0.00,5,Fog,185
2012-12-10,71,55,39,67,51,30,94,82,59,30.08,29.88,29.76,10,8,1,12,6,22,1.32,6,Rain-Thunderstorm,298
2012-12-11,53,43,33,32,30,23,89,65,32,30.23,30.15,30.08,10,10,10,7,3,,0.00,0,,29
2012-12-12,55,42,30,32,28,17,92,64,22,30.35,30.29,30.23,10,10,10,8,1,,0.00,0,,55
2012-12-13,63,44,26,32,26,19,92,65,18,30.38,30.32,30.26,10,10,10,7,1,,0.00,0,,106
2012-12-14,64,46,28,53,39,26,92,70,42,30.28,30.17,30.05,10,10,10,7,2,,0.00,3,,139
2012-12-15,77,68,59,64,61,53,84,77,61,30.04,29.95,29.89,10,10,10,13,7,25,0.00,7,,175
2012-12-16,70,65,60,66,61,59,97,91,83,29.91,29.84,29.77,10,7,1,16,6,31,1.17,8,Rain-Thunderstorm,203
2012-12-17,70,56,42,61,51,38,96,80,31,29.93,29.83,29.78,10,9,2,14,6,24,0.01,3,,252
2012-12-18,73,54,36,48,41,34,93,72,30,29.98,29.93,29.89,10,8,2,14,2,,0.00,0,,182
2012-12-19,78,62,46,70,59,46,100,82,54,29.95,29.85,29.74,10,8,2,14,5,24,0.34,4,Rain,180
2012-12-20,73,55,37,70,40,18,94,58,31,30.35,30.02,29.74,10,10,5,22,9,55,0.13,3,Rain,283
2012-12-21,60,44,28,34,22,13,89,52,18,30.48,30.40,30.35,10,10,10,8,4,,0.00,0,,299
2012-12-22,66,47,28,37,29,20,89,58,18,30.40,30.31,30.18,10,10,10,14,1,,0.00,0,,191
2012-12-23,70,61,52,60,52,34,84,73,50,30.17,30.02,29.89,10,10,6,12,5,20,0.01,7,Rain,178
2012-12-24,73,59,44,63,51,34,94,74,24,29.95,29.88,29.83,10,10,6,7,4,,0.00,3,,237
2012-12-25,63,50,37,61,52,32,100,89,66,29.89,29.67,29.50,10,7,1,29,5,36,2.21,7,Rain-Snow-Thunderstorm,30
2012-12-26,39,34,28,31,29,26,92,77,67,30.20,30.09,29.91,10,9,6,13,8,17,0.00,5,Snow,311
2012-12-27,45,35,26,38,32,24,93,82,65,30.20,30.09,29.97,10,9,6,10,2,,0.00,5,Snow,89
2012-12-28,61,52,43,59,50,37,94,89,76,30.07,29.87,29.72,10,7,2,13,4,22,0.66,8,Rain-Thunderstorm,334
2012-12-29,50,40,28,36,28,21,89,64,33,30.45,30.28,30.09,10,10,9,15,7,23,0.00,3,Snow,318
2012-12-30,48,36,24,35,27,22,92,72,41,30.55,30.44,30.32,10,10,8,9,1,,0.00,0,Snow,73
2012-12-31,61,47,34,54,41,32,92,72,56,30.31,30.17,29.97,10,10,10,12,3,,0.00,8,,135